Location: Mococo
(38.0255°N, 122.1161°W)
Time: 05:16:43
(UTC+00:00)

Landsat 7 - Pass Details

Date: 13 February 2026
Orbit: 680 x 682 km, 97.9° (Epoch: 5 March)

Event Time Altitude Azimuth Distance (km) Brightness Sun altitude
Rises 14:27:19 0° 12° (NNE) 3,046 7.1 -7.2°
Reaches altitude 10° 14:29:33 10° 12° (NNE) 2,126 6.3 -6.8°
Maximum altitude 14:34:13 90° 320° (NW) 685 3.8 -5.9°
Drops below altitude 10° 14:38:51 10° 194° (SSW) 2,111 6.3 -5.0°
Sets 14:41:04 0° 194° (SSW) 3,022 7.1 -4.5°
